Portland, ME

4:02 AM EDT on May 25, 2017 (GMT -0400)
Portland International

Weather History for KPWM - November, 2011

Change the Weather History Date:

Friday, November 4, 2011

  Actual Average Record
Temperature  
Mean Temperature 43 °F 43 °F  
Max Temperature 50 °F 52 °F 74 °F (1987)
Min Temperature 35 °F 34 °F 19 °F (2002)
Degree Days  
Heating Degree Days 22 22  
Month to date heating degree days 87 86  
Since 1 July heating degree days 611 810  
Cooling Degree Days 0 0  
Month to date cooling degree days 0 0  
Year to date cooling degree days 454 359  
Moisture  
Dew Point 27 °F    
Average Humidity 56    
Maximum Humidity 76    
Minimum Humidity 36    
Precipitation  
Precipitation 0.00 in 0.18 in 2.70 in (1983)
Month to date precipitation 0.00 0.72  
Year to date precipitation 45.40 39.02  
Snow  
Snow 0.00 in 0.00 in 3.00 in (1945)
Month to date snowfall 0.0 0.1  
Since 1 July snowfall 5.2 0.1  
Since 1 September snowfall 5.2 0.1  
Snow Depth 0.00 in    
Sea Level Pressure  
Sea Level Pressure 30.03 in    
Wind  
Wind Speed 12 mph (NW)    
Max Wind Speed 25 mph    
Max Gust Speed 35 mph    
Visibility 10 miles    
Events      
T = Trace of Precipitation, MM = Missing Value Source: NWS Daily Summary

Daily Weather History Graph

Daily Weather History Graph

Search for Another Location

Airport or City:

Trip Planner

Search our weather history database for the weather conditions in past years. The results will help you decide how hot, cold, wet, or windy it might be!

Date:

Astronomy

Nov. 04, 2011 Rise Set
Actual Time 7:20 AM EDT 5:28 PM EDT
Civil Twilight 6:50 AM EDT 5:58 PM EDT
Nautical Twilight 6:16 AM EDT 6:32 PM EDT
Astronomical Twilight 5:42 AM EDT 7:05 PM EDT
Moon 2:27 PM EDT (11/4) 1:18 AM EDT (11/4)
Length of Visible Light 11h 08m
Length of Day
10h 07m
Waxing Gibbous, 69% of the Moon is Illuminated
Nov 4
Waxing Gibbous
Nov 10
Full
Nov 18
Last Quarter
Nov 25
New
Dec 2
First Quarter

Hourly Weather History & Observations

Time (EDT) Temp. Windchill Dew Point Humidity Pressure Visibility Wind Dir Wind Speed Gust Speed Precip Events Conditions
12:51 AM 46.0 °F - 39.0 °F 76% 29.86 in 10.0 mi Calm Calm - N/A   Mostly Cloudy
1:51 AM 48.2 °F - 39.2 °F 71% 29.86 in 10.0 mi WNW 8.1 mph - N/A   Overcast
2:51 AM 48.9 °F - 39.0 °F 69% 29.88 in 10.0 mi NNW 8.1 mph 18.4 mph N/A   Scattered Clouds
3:51 AM 46.9 °F - 35.1 °F 63% 29.89 in 10.0 mi NNW 9.2 mph - N/A   Overcast
4:51 AM 45.0 °F 38.9 °F 30.9 °F 58% 29.91 in 10.0 mi NNW 12.7 mph 20.7 mph N/A   Clear
5:51 AM 43.0 °F 38.2 °F 28.9 °F 58% 29.94 in 10.0 mi NW 8.1 mph - N/A   Clear
6:51 AM 42.1 °F 35.7 °F 28.0 °F 58% 29.94 in 10.0 mi NW 11.5 mph 20.7 mph N/A   Clear
7:51 AM 41.0 °F 34.7 °F 27.0 °F 57% 29.97 in 10.0 mi NNW 10.4 mph - N/A   Clear
8:51 AM 42.1 °F 37.1 °F 28.0 °F 58% 29.99 in 10.0 mi NNW 8.1 mph - N/A   Clear
9:51 AM 45.0 °F 39.7 °F 25.0 °F 46% 29.99 in 10.0 mi NNW 10.4 mph 20.7 mph N/A   Clear
10:51 AM 46.0 °F 39.3 °F 23.0 °F 40% 29.99 in 10.0 mi NW 16.1 mph 28.8 mph N/A   Clear
11:51 AM 46.9 °F - 23.0 °F 39% 29.99 in 10.0 mi NW 19.6 mph 29.9 mph N/A   Partly Cloudy
12:51 PM 48.0 °F - 25.0 °F 41% 29.99 in 10.0 mi WNW 18.4 mph 28.8 mph N/A   Partly Cloudy
1:51 PM 48.9 °F - 23.0 °F 36% 29.99 in 10.0 mi NW 16.1 mph 27.6 mph N/A   Scattered Clouds
2:51 PM 48.9 °F - 23.0 °F 36% 30.01 in 10.0 mi NW 18.4 mph 28.8 mph N/A   Scattered Clouds
3:51 PM 46.9 °F - 21.0 °F 36% 30.04 in 10.0 mi NW 21.9 mph 33.4 mph N/A   Scattered Clouds
4:51 PM 44.1 °F 37.1 °F 21.9 °F 42% 30.07 in 10.0 mi NNW 15.0 mph 24.2 mph N/A   Partly Cloudy
5:51 PM 42.1 °F 35.7 °F 21.9 °F 45% 30.11 in 10.0 mi NW 11.5 mph - N/A   Partly Cloudy
6:51 PM 39.9 °F 32.9 °F 23.0 °F 51% 30.15 in 10.0 mi NNW 11.5 mph 18.4 mph N/A   Clear
7:51 PM 39.9 °F 31.8 °F 24.1 °F 53% 30.17 in 10.0 mi NNW 15.0 mph 21.9 mph N/A   Clear
8:51 PM 37.9 °F 31.5 °F 24.1 °F 57% 30.20 in 10.0 mi NW 9.2 mph - N/A   Clear
9:51 PM 37.0 °F 30.4 °F 23.0 °F 57% 30.22 in 10.0 mi NW 9.2 mph - N/A   Clear
10:51 PM 37.0 °F 30.4 °F 23.0 °F 57% 30.23 in 10.0 mi NNW 9.2 mph 18.4 mph N/A   Clear
11:51 PM 36.0 °F 31.1 °F 21.9 °F 57% 30.24 in 10.0 mi NW 5.8 mph - N/A   Clear